Powrót do katalogu

GALILEO 10 (206)

AktywnyNawigacjaMEO
NORAD 40890·PAYLOAD·🇪🇺 EU

Wystrzelony Sep 11, 2015 z Guiana Space Centre

Loading…

Następne Przeloty (najbliższe 24 godziny)

TLE

ŚwieżeSource: CelesTrak SupGP

Epoka: Sep 13, 2026, 23:59 UTC

1 40890C 15045B   26256.99979167  .00000000  00000+0  00000+0 0  2568
2 40890  54.9247 219.1530 0002666 351.2001 349.3656  1.70473263    17

Śledź GALILEO 10 (206) w czasie rzeczywistym z AllMySat

Download on the App Store